SCP
1 1 1 1 1 1 1 1 1 1 1 1 1 1 0 0 0 0 0 0 0 0 0 0 0 1 1 1 0 0 0 1 1 1 0 0 0 0 0 0 0 0 0
1 2 1 1 1 1 1 1 1 1 1 1 1 0 0 0 0 0 0 0 0 0 0 0 1 1 1 1 1 0 0 1 1 1 0 0 0 0 0 0 0 0 0
1 1 1 1 1 1 1 1 1 1 1 1 1 1 0 0 0 0 0 0 0 0 0 0 1 1 1 1 1 1 1 1 1 1 0 0 0 0 0 0 0 0 0
1 1 1 1 1 1 2 1 1 1 1 1 1 1 1 1 0 0 0 0 0 1 1 1 1 1 1 1 1 1 1 1 1 0 0 0 0 0 0 0 0 0 0
1 1 2 2 2 2 1 1 1 1 1 1 1 1 1 1 0 0 0 0 1 1 1 1 1 1 1 2 2 2 2 1 1 1 0 0 0 0 0 0 0 0 0
1 1 2 2 2 2 2 2 2 2 2 1 1 1 1 0 0 0 0 0 1 1 1 1 1 1 1 2 2 2 2 1 1 1 1 0 0 0 0 0 0 0 0
1 2 2 2 3 2 2 3 3 3 2 2 1 1 1 0 0 0 1 1 1 1 1 1 1 1 1 1 2 3 2 2 1 1 1 0 0 0 0 0 0 0 0
1 2 2 2 2 2 2 2 3 3 2 2 1 1 1 0 0 1 1 1 1 1 1 1 1 1 1 1 2 2 2 2 1 1 1 1 0 0 0 0 0 0 0
1 2 2 2 2 2 2 2 2 2 2 2 2 2 1 1 1 1 2 2 1 1 1 1 1 0 0 1 1 1 1 1 1 1 1 1 1 0 0 0 0 0 0
2 2 2 2 2 2 2 2 1 2 2 2 2 2 2 2 2 2 2 2 2 1 1 1 1 0 0 0 0 0 1 1 1 1 1 1 1 0 0 0 0 0 0
2 2 2 3 3 2 2 2 2 2 2 3 2 2 2 2 2 3 3 2 2 2 1 1 1 0 0 0 0 0 0 0 1 1 1 1 1 1 0 0 0 0 0
2 2 2 3 3 2 2 2 2 2 2 3 3 2 2 2 2 2 2 2 2 2 1 1 1 0 0 0 0 0 0 0 0 0 1 1 1 1 1 0 0 0 0
2 2 2 3 3 2 2 2 2 2 2 3 3 3 2 2 2 2 1 1 1 1 1 1 1 0 0 0 0 0 0 0 0 0 0 0 1 1 1 0 0 0 0
2 2 3 3 3 3 2 2 2 2 3 3 3 3 2 2 2 2 1 1 1 1 1 1 1 1 0 0 0 1 0 0 0 0 0 0 0 1 1 0 0 0 0
2 2 3 4 4 3 3 2 2 2 2 3 3 3 3 2 2 2 2 1 1 1 1 1 1 1 1 0 0 0 0 0 0 0 0 0 0 0 0 0 0 0 0
3 3 3 4 4 3 3 3 2 2 2 3 3 3 3 3 3 3 2 2 1 1 1 1 1 1 1 0 0 0 0 0 0 0 0 0 0 0 0 0 0 0 0
3 3 3 3 3 3 3 3 3 3 2 2 3 3 3 3 3 3 3 2 2 2 1 1 1 1 1 0 0 0 0 0 0 0 0 0 0 0 0 0 0 0 0
2 2 2 2 2 3 3 3 3 3 2 2 2 3 3 3 3 4 4 3 3 2 2 1 1 1 1 0 0 0 0 0 0 0 0 0 0 0 0 0 0 0 0
1 1 1 1 1 2 2 3 3 3 3 3 3 3 3 3 4 4 5 4 4 3 2 2 1 1 1 1 0 0 0 0 0 0 0 0 0 0 0 0 0 0 0
1 0 0 1 1 1 2 2 3 3 3 3 3 3 3 3 4 5 6 6 5 4 3 2 2 2 1 1 0 0 0 0 0 0 0 0 0 0 0 0 0 0 0
0 0 0 0 1 1 1 2 2 2 2 2 2 3 3 3 4 5 6 7 7 5 4 3 2 2 2 1 0 0 0 0 0 0 0 0 0 0 0 0 0 0 0
0 0 0 0 1 1 1 1 1 1 2 2 3 3 3 4 4 5 7 8 7 6 5 4 3 3 2 1 0 0 0 0 0 0 0 0 0 0 0 0 0 0 0
0 0 0 0 0 1 1 1 1 1 2 3 3 4 4 4 5 5 6 7 7 7 6 5 4 3 2 1 0 0 0 0 0 0 0 0 0 0 0 0 0 0 0
0 0 0 0 0 1 1 1 1 1 2 3 4 4 5 5 5 4 5 6 7 7 6 6 5 4 2 1 0 0 0 0 0 0 0 0 0 0 0 0 0 0 0
0 0 0 1 0 1 1 2 2 2 2 3 4 4 4 4 3 2 3 4 4 5 5 6 5 4 2 0 0 0 0 0 0 0 0 0 0 0 0 0 0 0 0
0 0 1 1 1 1 1 2 2 2 2 3 4 4 3 3 2 1 1 2 2 2 3 4 4 3 1 0 0 0 0 0 0 0 0 0 0 0 0 0 0 0 0
Wind_Speed
8 7 6 5 4 4 5 5 4 3 3 2 2 2 2 2 2 2 3 3 3 3 3 3 3 3 3 2 3 2 2 1 1 2 2 2 2 3 2 2 2 3 3
9 8 7 6 4 5 5 4 4 4 4 2 2 2 2 2 2 2 2 3 3 3 3 3 3 3 2 3 3 3 2 2 2 1 1 1 2 2 2 2 2 2 2
8 9 8 7 5 5 5 5 5 4 4 4 2 2 2 2 2 2 1 2 2 3 3 3 3 2 2 2 2 2 2 2 2 2 1 1 1 1 1 2 2 2 2
7 8 7 7 6 5 4 5 5 4 4 4 2 2 2 1 1 1 1 1 1 2 2 2 2 2 2 2 1 2 1 2 2 2 2 1 1 1 1 2 2 2 2
7 9 8 7 7 6 4 4 5 4 4 3 3 2 2 1 1 1 2 1 1 1 2 1 1 1 2 1 2 2 2 1 1 1 1 2 1 0 2 0 0 1 1
7 8 8 7 6 6 5 4 4 4 3 3 3 3 2 2 1 1 1 1 1 1 1 1 1 0 1 1 1 1 1 1 1 1 1 1 1 1 1 1 1 0 0
7 7 8 8 6 6 6 5 5 4 4 3 3 3 3 2 2 2 1 1 1 1 0 1 0 0 1 1 1 1 1 1 1 0 0 1 1 1 1 1 0 0 0
8 8 8 8 7 6 6 6 5 4 4 3 2 3 3 2 1 1 1 1 1 1 1 1 1 0 0 1 2 1 0 1 1 0 0 1 1 1 1 1 1 1 1
7 8 8 8 8 7 6 6 6 5 4 3 2 2 2 2 2 2 1 1 1 1 1 1 1 1 1 1 1 1 1 0 0 0 1 0 0 1 1 0 1 2 1
6 7 7 7 7 7 5 5 5 5 5 4 3 2 2 2 1 1 1 1 1 1 1 1 1 1 2 1 1 0 0 1 0 0 0 0 0 1 0 1 0 1 1
4 5 6 6 6 6 6 6 5 4 4 4 3 3 2 2 2 1 1 1 1 1 1 1 1 1 2 2 1 1 0 0 1 1 1 0 0 1 0 0 0 0 1
2 4 5 6 6 7 6 6 6 5 4 4 3 3 3 2 2 2 1 1 1 1 1 2 1 1 1 1 2 1 1 1 1 1 1 1 1 1 0 0 0 0 1
2 2 3 5 5 5 6 5 5 5 4 4 3 2 3 3 2 2 1 1 1 1 1 1 1 1 1 1 1 1 1 1 1 1 1 1 1 1 1 1 0 0 0
2 2 2 3 4 4 4 5 4 5 5 5 4 3 3 3 3 2 2 1 1 1 1 1 0 1 1 0 1 0 0 1 1 1 1 1 1 1 1 1 1 1 1
2 2 1 1 2 3 4 4 4 5 5 5 4 4 3 3 3 2 2 1 1 1 1 1 0 0 1 1 1 1 1 1 1 1 1 1 2 2 1 1 1 1 1
2 2 1 2 2 2 3 4 4 4 5 4 4 3 3 2 3 2 2 2 1 1 1 1 1 0 0 2 1 1 1 1 1 0 1 1 1 2 3 3 2 1 2
2 2 1 1 1 2 3 3 4 4 4 4 4 4 3 2 2 2 2 2 2 1 1 1 1 1 1 2 1 2 1 1 0 0 0 0 1 2 2 1 1 1 1
2 1 1 0 0 0 1 3 3 4 4 4 3 3 3 3 3 3 2 2 2 1 1 1 2 1 1 1 1 2 1 1 1 1 1 1 1 1 1 2 1 1 0
2 2 1 1 0 0 0 1 3 3 3 4 3 3 3 3 3 3 2 2 1 1 2 2 2 2 2 2 2 1 1 1 1 1 0 1 1 2 2 1 1 1 1
1 2 2 2 1 0 1 2 3 3 3 4 3 3 3 3 3 4 3 2 2 2 2 2 2 2 2 3 2 2 1 1 1 0 0 1 1 2 1 1 1 1 1
2 2 2 2 1 1 1 1 2 2 2 3 3 3 3 4 3 3 2 2 2 2 2 2 2 2 2 4 4 3 1 1 1 1 0 0 1 1 1 0 0 1 1
2 2 1 1 1 1 1 1 1 1 1 2 2 3 3 3 3 3 3 3 2 2 3 2 2 1 2 4 4 4 3 2 1 1 1 1 2 1 0 0 1 1 1
2 2 1 1 1 1 0 1 1 1 1 2 2 2 3 3 3 3 3 2 2 2 2 2 2 1 1 1 3 4 3 3 1 1 1 1 2 1 1 2 2 1 0
1 1 1 1 2 1 1 1 0 0 1 2 2 2 2 2 2 2 3 2 2 2 2 2 2 2 1 1 1 1 1 2 2 1 1 1 2 2 2 1 1 1 1
2 2 2 2 2 2 1 1 1 1 1 2 2 2 2 2 2 1 1 2 2 3 3 2 2 2 2 2 2 2 2 2 2 1 1 1 1 1 1 1 1 1 1
2 2 2 2 2 2 1 1 1 1 1 1 1 1 1 1 2 2 0 1 3 4 5 5 4 3 3 3 3 3 3 3 3 2 2 2 2 3 3 2 2 2 2
Wind_Direction
159 150 145 137 129 122 118 119 120 118 107 93 90 89 87 86 71 54 56 56 56 70 76 66 63 62 60 63 66 57 41 33 40 49 47 49 79 93 80 61 65 65 71
160 155 150 142 143 138 131 127 121 115 105 97 102 115 108 106 106 76 57 48 56 63 79 84 80 73 57 43 50 49 25 13 35 62 65 47 20 35 84 93 77 67 71
158 159 158 153 150 147 145 142 142 133 125 120 104 93 81 70 79 86 70 36 52 62 56 77 83 97 90 75 57 52 46 16 360 34 72 94 79 8 7 71 85 85 80
161 156 156 157 155 148 144 144 140 134 127 129 120 128 125 118 132 130 122 112 71 82 66 62 87 105 102 104 104 82 52 51 14 3 14 61 131 127 28 8 46 84 97
164 161 160 158 157 149 149 151 139 137 138 136 134 134 119 132 119 108 130 128 105 93 93 69 58 80 97 103 75 75 51 58 52 22 3 3 353 45 129 129 21 24 53
163 164 157 150 148 147 147 143 138 142 141 145 152 151 140 142 131 131 123 118 116 96 96 96 70 89 116 125 110 108 98 75 52 13 29 35 22 3 76 116 143 111 333
165 159 153 153 152 155 152 151 150 148 149 161 165 160 161 168 170 161 154 150 130 108 141 105 102 99 154 143 126 132 140 140 115 26 10 5 1 44 58 84 80 93 286
162 159 157 158 159 163 163 164 162 156 155 168 177 168 161 160 175 163 150 168 155 154 178 165 168 157 134 116 124 129 193 141 141 142 90 37 5 29 64 105 93 46 10
156 158 162 163 164 168 172 171 165 162 163 175 188 174 159 156 167 167 154 153 171 180 192 183 183 167 161 138 122 141 225 133 148 144 113 105 63 31 17 59 132 133 127
161 159 159 164 167 167 172 169 168 168 164 170 179 170 154 151 146 142 161 163 186 195 198 204 197 176 159 158 132 154 212 132 128 102 52 74 121 86 13 330 17 110 139
159 160 158 159 167 170 173 175 174 169 165 168 171 162 161 154 142 139 144 170 201 199 211 232 189 171 165 166 146 151 126 194 209 191 162 187 107 117 141 334 1 44 114
140 148 153 158 169 176 177 177 174 170 164 166 166 160 153 140 151 164 170 187 181 193 230 231 187 182 164 164 152 180 193 207 250 228 180 195 163 139 144 106 227 201 166
113 119 146 160 166 172 177 174 170 166 160 155 157 160 156 159 166 161 161 181 184 193 240 227 165 170 168 190 189 188 194 195 225 230 186 196 151 169 171 159 209 237 155
100 91 119 154 158 166 171 167 168 163 161 157 164 180 179 175 172 162 154 187 214 174 199 234 172 154 161 120 92 87 233 223 219 176 137 134 150 179 185 174 207 183 120
93 100 126 147 158 163 169 168 169 163 163 164 170 179 179 176 169 161 161 176 196 217 203 210 196 187 150 84 62 26 305 272 245 190 151 123 98 104 124 133 172 154 144
60 61 112 146 164 177 175 169 165 163 162 165 164 160 170 170 164 166 162 169 193 215 197 194 172 176 122 85 69 27 284 259 240 215 175 157 131 95 80 80 72 95 154
51 31 8 69 179 185 179 167 163 157 161 165 161 165 165 162 162 166 168 180 190 196 170 185 170 165 135 114 66 346 318 278 209 188 258 268 159 148 142 118 77 40 14
16 15 344 323 284 183 150 161 152 155 161 158 156 162 164 169 165 162 176 188 184 175 185 200 191 177 186 180 224 303 271 287 251 175 208 190 123 117 113 134 134 144 288
10 341 327 280 172 86 117 148 150 159 163 160 164 168 169 169 167 172 182 177 172 185 201 199 191 197 203 193 206 234 246 260 255 229 251 134 128 77 68 97 136 148 268
26 352 356 5 59 108 165 156 161 169 175 170 174 176 173 177 187 187 185 180 191 203 206 222 205 195 188 176 191 214 227 239 236 167 101 82 112 99 77 152 145 193 247
23 15 14 12 20 27 44 177 170 181 180 172 171 177 184 191 190 183 179 188 199 202 212 221 222 207 181 175 187 199 218 236 223 198 186 157 128 117 96 38 225 250 269
17 12 12 18 353 11 212 200 196 188 155 158 178 189 189 197 187 172 183 195 196 207 220 218 219 220 192 170 188 201 224 254 224 217 185 164 167 176 157 252 281 312 324
5 2 360 343 329 338 287 238 248 153 147 169 195 199 190 188 183 180 188 198 196 202 214 209 213 231 214 167 184 204 227 252 244 232 181 180 189 187 218 248 255 274 242
347 332 318 290 291 299 285 226 267 176 172 198 207 202 193 193 186 179 186 193 197 201 206 208 220 222 200 177 176 187 211 234 233 234 226 224 208 221 244 266 252 233 224
328 311 301 294 288 289 283 274 221 197 213 217 209 211 195 181 178 178 197 201 201 193 197 207 209 206 219 220 204 193 204 214 215 209 204 213 207 207 217 230 227 221 228
301 292 288 289 280 276 271 252 221 201 216 222 213 204 185 179 176 168 200 228 209 210 213 220 221 231 222 225 215 213 225 230 222 199 203 216 217 218 217 218 223 221 226